GAOFEN-1 02

Last updated on Wed Oct 29 2025 00:02:31 GMT+0000 (Coordinated Universal Time)

1 43259U 18031A 25301.65690352 .00001305 00000+0 19518-3 0 9998 2 43259 98.0870 359.4132 0003278 46.3826 313.7655 14.76435946408532
UTC large
Height (km)
Speed (km/s)
/
Latitude / Longitude
Inclination (degrees)
Orbital Period (minutes)
Azimuth
Elevation
Range (km)
Doppler Factor

Next 0 passes for location: London (51.5072 / 0.1276)

Sorry there are no passes over London.